IZ3TCG-13 Weather Reports


Display with metric or nautical units.
time (UTC)temp
F
wind
direction
speed
MPH
gust
MPH
rain 1hr
in
rain 24hr
in
rain mn
in
humidity
%
barometer
mb
20260901045603 72 336 0.0 4.0 0.00 0.00 0.00 71 1015.5
20260901045203 71 341 0.0 4.0 0.00 0.00 0.00 72 1015.4
20260901045017 71 343 1.0 4.0 0.00 0.00 0.00 72 1015.8
20260901044617 71 360 1.0 2.0 0.00 0.00 0.00 72 1015.5
20260901044003 72 3 0.0 2.0 0.00 0.00 0.00 72 1015.4
20260901043603 72 1 1.0 2.0 0.00 0.00 0.00 71 1015.5
20260901043203 72 3 1.0 2.0 0.00 0.00 0.00 71 1015.3
20260901042803 72 11 0.0 2.0 0.00 0.00 0.00 71 1015.2
20260901042403 72 4 1.0 2.0 0.00 0.00 0.00 71 1015.3
20260901042003 72 352 0.0 2.0 0.00 0.00 0.00 71 1015.5
20260901041603 72 355 1.0 4.0 0.00 0.00 0.00 71 1015.2
20260901041203 72 6 0.0 4.0 0.00 0.00 0.00 72 1015.1
20260901041016 72 4 0.0 4.0 0.00 0.00 0.00 72 1015.3
20260901040403 72 18 1.0 4.0 0.00 0.00 0.00 72 1015.3
20260901040003 72 16 3.0 4.0 0.00 0.00 0.00 71 1015.2
20260901035603 71 357 2.0 2.0 0.00 0.00 0.00 71 1015.1
20260901035413 71 346 1.0 2.0 0.00 0.00 0.00 72 1015.0
20260901034803 71 339 2.0 2.0 0.00 0.00 0.00 72 1015.1
20260901034403 72 336 1.0 2.0 0.00 0.00 0.00 72 1015.0
20260901034217 72 340 0.0 2.0 0.00 0.00 0.00 72 1014.9
20260901033603 72 350 1.0 2.0 0.00 0.00 0.00 71 1014.8
20260901033203 72 344 1.0 4.0 0.00 0.00 0.00 71 1014.7
20260901032803 72 338 0.0 4.0 0.00 0.00 0.00 71 1014.9
20260901032403 72 2 1.0 4.0 0.00 0.00 0.00 71 1015.0
20260901032003 72 5 0.0 4.0 0.00 0.00 0.00 70 1014.7
20260901031604 72 10 2.0 6.0 0.00 0.00 0.00 69 1014.6
20260901031203 72 4 2.0 7.0 0.00 0.00 0.00 69 1014.7
20260901030803 73 358 2.0 7.0 0.00 0.00 0.00 69 1014.6
20260901030403 72 353 2.0 6.0 0.00 0.00 0.00 69 1014.6
20260901030003 73 3 2.0 6.0 0.00 0.00 0.00 69 1014.8
20260901025815 73 11 2.0 6.0 0.00 0.00 0.00 69 1014.7
20260901025203 73 6 2.0 4.0 0.00 0.00 0.00 69 1014.8
20260901024803 73 3 0.0 4.0 0.00 0.00 0.00 70 1014.9
20260901024404 73 360 0.0 6.0 0.00 0.00 0.00 69 1014.9
20260901024004 73 356 1.0 7.0 0.00 0.00 0.00 68 1014.7
20260901023603 73 353 2.0 7.0 0.00 0.00 0.00 68 1014.7
20260901023203 73 2 2.0 7.0 0.00 0.00 0.00 68 1014.7
20260901023015 73 9 3.0 7.0 0.00 0.00 0.00 68 1014.8
20260901022615 73 12 2.0 6.0 0.00 0.00 0.00 68 1014.8
20260901022003 74 10 2.0 8.0 0.00 0.00 0.00 68 1014.8
20260901021603 74 12 3.0 8.0 0.00 0.00 0.00 67 1014.9
20260901021203 74 16 3.0 8.0 0.00 0.00 0.00 67 1014.7
20260901020803 74 9 2.0 9.0 0.00 0.00 0.00 67 1014.7
20260901020403 74 9 2.0 9.0 0.00 0.00 0.00 67 1014.6
20260901020003 74 4 4.0 9.0 0.00 0.00 0.00 66 1014.5
20260901015603 74 6 3.0 8.0 0.00 0.00 0.00 67 1014.5
20260901015203 74 7 2.0 7.0 0.00 0.00 0.00 67 1014.6
20260901014803 74 2 2.0 7.0 0.00 0.00 0.00 68 1014.5
20260901014403 75 356 2.0 9.0 0.00 0.00 0.00 69 1014.5
20260901014213 75 346 2.0 9.0 0.00 0.00 0.00 70 1014.4
20260901013604 75 357 3.0 9.0 0.00 0.00 0.00 69 1014.7
20260901013203 75 1 2.0 9.0 0.00 0.00 0.00 70 1014.4
20260901012803 75 355 3.0 9.0 0.00 0.00 0.00 70 1014.5
20260901012403 75 18 4.0 7.0 0.00 0.00 0.00 72 1014.6
20260901012003 75 33 2.0 6.0 0.00 0.00 0.00 74 1014.4
20260901011603 75 30 2.0 6.0 0.00 0.00 0.00 73 1014.3
20260901011413 75 31 2.0 6.0 0.00 0.00 0.00 73 1014.4
20260901010803 76 19 1.0 8.0 0.00 0.00 0.00 74 1014.5
20260901010403 76 28 3.0 13.0 0.00 0.00 0.00 73 1014.3
20260901010003 76 37 4.0 13.0 0.00 0.00 0.00 75 1014.1
20260901005603 76 34 3.0 7.0 0.00 0.00 0.00 76 1014.2
20260901005203 76 35 2.0 11.0 0.00 0.00 0.00 77 1014.4
20260901005015 76 39 2.0 11.0 0.00 0.00 0.00 78 1014.3
20260901004403 76 42 5.0 11.0 0.00 0.00 0.00 79 1014.2
20260901004003 76 53 4.0 9.0 0.00 0.00 0.00 81 1014.1
20260901003603 76 50 4.0 9.0 0.00 0.00 0.00 84 1014.3
20260901003203 76 39 4.0 9.0 0.00 0.00 0.00 86 1014.3
20260901003017 76 28 4.0 9.0 0.00 0.00 0.00 87 1014.2
20260901002403 76 25 2.0 6.0 0.00 0.00 0.00 88 1014.1
20260901002215 76 36 3.0 6.0 0.00 0.00 0.00 88 1014.2
20260901001815 76 19 1.0 6.0 0.00 0.00 0.00 89 1014.2
20260901001203 76 20 2.0 6.0 0.00 0.00 0.00 89 1014.2
20260901001013 76 19 3.0 6.0 0.00 0.00 0.00 89 1014.0
20260901000405 75 17 2.0 6.0 0.00 0.00 0.00 90 1013.9
20260901000004 75 359 2.0 8.0 0.00 0.00 0.00 90 1013.7
20260831235603 75 355 2.0 8.0 0.00 0.00 0.00 90 1013.9
20260831235203 75 345 4.0 8.0 0.00 0.00 0.00 89 1013.9
20260831234803 75 353 2.0 6.0 0.00 0.00 0.00 89 1013.8
20260831234403 75 348 2.0 4.0 0.00 0.00 0.00 89 1013.9
20260831234214 75 352 1.0 4.0 0.00 0.00 0.00 90 1013.8
20260831233603 75 344 1.0 2.0 0.00 0.00 0.00 90 1013.7
20260831233203 75 18 1.0 2.0 0.00 0.00 0.00 90 1013.7
20260831233017 75 31 1.0 2.0 0.00 0.00 0.00 90 1013.5
20260831232403 75 39 1.0 2.0 0.00 0.00 0.00 90 1013.6
20260831232216 75 21 0.0 2.0 0.00 0.00 0.00 90 1013.5
20260831231603 75 326 0.0 2.0 0.00 0.00 0.00 90 1013.4
20260831231203 75 360 0.0 2.0 0.00 0.00 0.00 90 1013.3
20260831230803 74 350 0.0 2.0 0.00 0.00 0.00 91 1013.3
20260831230403 74 346 0.0 2.0 0.00 0.00 0.00 90 1013.1
20260831230004 74 337 0.0 2.0 0.00 0.00 0.00 91 1013.1
20260831225603 74 0 0.0 0.0 0.00 0.00 0.00 91 1013.1
20260831225203 74 0 0.0 0.0 0.00 0.00 0.00 91 1012.8
20260831224803 74 0 0.0 0.0 0.00 0.00 0.00 90 1013.0
20260831224615 74 0 0.0 0.0 0.00 0.00 0.00 90 1012.8
20260831224003 74 0 0.0 0.0 0.00 0.00 0.00 90 1012.8
20260831223603 74 0 0.0 0.0 0.00 0.00 0.00 90 1012.8
20260831223203 74 0 0.0 0.0 0.00 0.00 0.00 90 1012.8
20260831222803 74 0 0.0 0.0 0.00 0.00 0.00 90 1012.6
20260831222403 74 0 0.0 0.0 0.00 0.00 0.00 90 1012.8
20260831222003 74 90 0.0 2.0 0.00 0.00 0.00 89 1012.6
20260831221603 75 90 0.0 2.0 0.00 0.00 0.00 88 1012.4
20260831221203 75 103 0.0 2.0 0.00 0.00 0.00 88 1012.7
20260831220803 75 107 0.0 2.0 0.00 0.00 0.00 88 1012.5
20260831220614 75 105 0.0 2.0 0.00 0.00 0.00 88 1012.6
20260831220007 75 90 0.0 2.0 0.00 0.00 0.00 88 1012.6
20260831215603 75 90 0.0 2.0 0.00 0.00 0.00 87 1012.6
20260831215203 75 90 0.0 2.0 0.00 0.00 0.00 87 1012.6
20260831214803 75 90 0.0 2.0 0.00 0.00 0.00 87 1012.4
20260831214616 75 90 0.0 2.0 0.00 0.00 0.00 87 1012.7
20260831214003 75 90 1.0 2.0 0.00 0.00 0.00 86 1012.6
20260831213603 75 90 1.0 2.0 0.00 0.00 0.00 86 1012.7
20260831213414 75 90 2.0 2.0 0.00 0.00 0.00 86 1012.5
20260831213014 75 90 0.0 2.0 0.00 0.00 0.00 86 1012.6
20260831212403 75 90 0.0 2.0 0.00 0.00 0.00 86 1012.7
20260831212003 76 90 0.0 2.0 0.00 0.00 0.00 85 1012.4
20260831211817 76 90 1.0 2.0 0.00 0.00 0.00 85 1012.4
20260831211203 75 0 0.0 0.0 0.00 0.00 0.00 86 1012.3
20260831210803 75 0 0.0 0.0 0.00 0.00 0.00 87 1012.7
20260831210403 75 0 0.0 0.0 0.00 0.00 0.00 87 1012.4
20260831210004 74 0 0.0 0.0 0.00 0.00 0.00 87 1012.2
20260831205603 75 0 0.0 0.0 0.00 0.00 0.00 87 1012.1
20260831205203 75 0 0.0 0.0 0.00 0.00 0.00 87 1012.1
20260831204803 75 0 0.0 0.0 0.00 0.00 0.00 86 1012.1
20260831204403 76 0 0.0 0.0 0.00 0.00 0.00 86 1012.3
20260831204216 76 0 0.0 0.0 0.00 0.00 0.00 85 1012.2
20260831203815 76 0 0.0 0.0 0.00 0.00 0.00 85 1012.2
20260831203203 76 0 0.0 0.0 0.00 0.00 0.00 84 1012.3
20260831202803 76 0 0.0 0.0 0.00 0.00 0.00 85 1012.0
20260831202613 76 0 0.0 0.0 0.00 0.00 0.00 84 1012.1
20260831202218 76 0 0.0 0.0 0.00 0.00 0.00 85 1012.1
20260831201604 76 0 0.0 0.0 0.00 0.00 0.00 85 1011.9
20260831201416 76 0 0.0 0.0 0.00 0.00 0.00 85 1012.0
20260831200803 76 0 0.0 0.0 0.00 0.00 0.00 84 1012.0
20260831200403 76 0 0.0 0.0 0.00 0.00 0.00 84 1011.7
20260831200004 76 202 0.0 2.0 0.00 0.00 0.00 83 1011.9
20260831195604 77 202 0.0 2.0 0.00 0.00 0.00 83 1011.8
20260831195204 77 205 0.0 2.0 0.00 0.00 0.00 83 1012.0
20260831194803 77 205 1.0 2.0 0.00 0.00 0.00 83 1011.8
20260831194616 77 206 0.0 2.0 0.00 0.00 0.00 83 1011.6
20260831194003 76 202 0.0 2.0 0.00 0.00 0.00 83 1011.6
20260831193603 77 0 0.0 0.0 0.00 0.00 0.00 83 1011.7
20260831193203 77 135 0.0 2.0 0.00 0.00 0.00 82 1011.7
20260831192803 77 135 0.0 2.0 0.00 0.00 0.00 82 1011.8
20260831192403 77 135 0.0 2.0 0.00 0.00 0.00 81 1011.8
20260831192004 78 136 0.0 2.0 0.00 0.00 0.00 81 1011.6
20260831191603 78 157 1.0 2.0 0.00 0.00 0.00 81 1011.5
20260831191203 78 197 0.0 2.0 0.00 0.00 0.00 81 1011.8
20260831190803 78 227 1.0 2.0 0.00 0.00 0.00 80 1011.4
20260831190404 78 180 0.0 2.0 0.00 0.00 0.00 80 1011.5
20260831190004 78 0 0.0 0.0 0.00 0.00 0.00 79 1011.5
20260831185603 79 157 0.0 2.0 0.00 0.00 0.00 79 1011.3
20260831185203 79 110 0.0 2.0 0.00 0.00 0.00 78 1011.4
20260831184803 79 75 0.0 2.0 0.00 0.00 0.00 77 1011.4
20260831184403 79 20 0.0 2.0 0.00 0.00 0.00 77 1011.5
20260831184003 79 337 0.0 2.0 0.00 0.00 0.00 78 1011.2
20260831183603 79 39 0.0 2.0 0.00 0.00 0.00 78 1011.0
20260831183203 79 90 0.0 2.0 0.00 0.00 0.00 78 1011.3
20260831182803 79 90 0.0 2.0 0.00 0.00 0.00 78 1011.0
20260831182613 79 67 0.0 2.0 0.00 0.00 0.00 78 1011.1
20260831182213 80 67 0.0 2.0 0.00 0.00 0.00 77 1011.2
20260831181603 80 67 0.0 2.0 0.00 0.00 0.00 77 1011.0
20260831181204 80 67 0.0 2.0 0.00 0.00 0.00 76 1010.8
20260831180803 80 0 0.0 0.0 0.00 0.00 0.00 76 1010.9
20260831180403 81 67 0.0 2.0 0.00 0.00 0.00 75 1011.0
20260831180004 81 67 0.0 2.0 0.00 0.00 0.00 74 1010.9
20260831175603 81 67 0.0 2.0 0.00 0.00 0.00 73 1010.9
20260831175413 81 67 0.0 2.0 0.00 0.00 0.00 73 1010.8
20260831174803 82 75 0.0 2.0 0.00 0.00 0.00 72 1010.9
20260831174403 82 88 0.0 2.0 0.00 0.00 0.00 72 1010.9
20260831174003 83 86 1.0 4.0 0.00 0.00 0.00 70 1010.8
20260831173603 83 81 1.0 6.0 0.00 0.00 0.00 69 1010.8
20260831173203 83 83 2.0 6.0 0.00 0.00 0.00 68 1011.1
20260831172803 84 86 3.0 7.0 0.00 0.00 0.00 68 1011.0
20260831172403 84 88 3.0 7.0 0.00 0.00 0.00 67 1011.0
20260831172003 84 92 4.0 7.0 0.00 0.00 0.00 67 1010.9
20260831171603 84 90 3.0 6.0 0.00 0.00 0.00 67 1011.0
20260831171203 85 88 0.0 6.0 0.00 0.00 0.00 68 1010.8
20260831170803 85 88 2.0 9.0 0.00 0.00 0.00 66 1011.0
20260831170404 86 93 3.0 9.0 0.00 0.00 0.00 65 1011.2
20260831170004 87 99 4.0 9.0 0.00 0.00 0.00 63 1011.2
20260831165604 88 186 2.0 2.0 0.00 0.00 0.00 53 1010.9
20260831165203 89 177 1.0 4.0 0.00 0.00 0.00 53 1011.1
20260831165013 89 177 1.0 4.0 0.00 0.00 0.00 52 1011.1
20260831164403 89 166 1.0 4.0 0.00 0.00 0.00 52 1011.1
20260831164003 89 182 2.0 4.0 0.00 0.00 0.00 52 1011.1
20260831163603 91 211 0.0 4.0 0.00 0.00 0.00 51 1011.0
20260831163203 91 215 0.0 4.0 0.00 0.00 0.00 51 1011.1
20260831163015 91 213 0.0 4.0 0.00 0.00 0.00 51 1011.4
20260831162615 91 188 2.0 4.0 0.00 0.00 0.00 49 1011.3
20260831162003 92 186 0.0 6.0 0.00 0.00 0.00 49 1011.5
20260831161813 92 188 1.0 6.0 0.00 0.00 0.00 48 1011.3
20260831161203 92 215 2.0 4.0 0.00 0.00 0.00 47 1011.4
20260831160803 92 231 2.0 6.0 0.00 0.00 0.00 47 1011.2
20260831160403 92 212 2.0 6.0 0.00 0.00 0.00 47 1011.3
20260831160003 92 201 3.0 6.0 0.00 0.00 0.00 46 1011.4
20260831155603 92 206 2.0 7.0 0.00 0.00 0.00 49 1011.4
20260831155415 92 207 2.0 7.0 0.00 0.00 0.00 49 1011.3
20260831154804 91 197 3.0 7.0 0.00 0.00 0.00 49 1011.3
20260831154403 91 184 4.0 7.0 0.00 0.00 0.00 49 1011.3
20260831154003 92 180 3.0 7.0 0.00 0.00 0.00 50 1011.5
20260831153603 93 195 2.0 4.0 0.00 0.00 0.00 47 1011.6
20260831153204 92 190 1.0 6.0 0.00 0.00 0.00 46 1011.4
20260831152803 92 166 1.0 6.0 0.00 0.00 0.00 52 1011.4
20260831152403 93 170 2.0 4.0 0.00 0.00 0.00 49 1011.3
20260831152003 93 180 2.0 6.0 0.00 0.00 0.00 49 1011.4
20260831151603 93 210 1.0 6.0 0.00 0.00 0.00 47 1011.6
20260831151203 93 219 2.0 6.0 0.00 0.00 0.00 47 1011.5
20260831150803 93 222 3.0 6.0 0.00 0.00 0.00 48 1011.4
20260831150403 93 229 2.0 8.0 0.00 0.00 0.00 48 1011.5
20260831150003 93 227 2.0 8.0 0.00 0.00 0.00 46 1011.4
20260831145816 94 220 3.0 8.0 0.00 0.00 0.00 46 1011.4
20260831145203 94 173 0.0 4.0 0.00 0.00 0.00 45 1011.6
20260831144803 94 185 3.0 6.0 0.00 0.00 0.00 47 1011.5
20260831144403 93 216 2.0 6.0 0.00 0.00 0.00 48 1011.7
20260831144214 93 228 2.0 6.0 0.00 0.00 0.00 48 1011.7
20260831143603 94 215 3.0 6.0 0.00 0.00 0.00 46 1011.8
20260831143203 94 215 1.0 7.0 0.00 0.00 0.00 47 1011.7
20260831142803 93 204 1.0 7.0 0.00 0.00 0.00 49 1011.9
20260831142616 92 203 1.0 7.0 0.00 0.00 0.00 44 1011.7
20260831142003 93 211 2.0 6.0 0.00 0.00 0.00 47 1011.9
20260831141603 94 196 2.0 6.0 0.00 0.00 0.00 46 1011.7
20260831141203 93 212 3.0 8.0 0.00 0.00 0.00 49 1011.7
20260831140803 93 223 3.0 8.0 0.00 0.00 0.00 47 1011.7
20260831140403 93 232 4.0 8.0 0.00 0.00 0.00 47 1011.6
20260831140003 94 178 2.0 4.0 0.00 0.00 0.00 45 1011.9
20260831135603 94 163 2.0 7.0 0.00 0.00 0.00 46 1011.7
20260831135203 93 174 2.0 7.0 0.00 0.00 0.00 45 1011.8
20260831134803 92 189 2.0 7.0 0.00 0.00 0.00 47 1011.7
20260831134403 94 214 2.0 6.0 0.00 0.00 0.00 46 1011.9
20260831134004 94 213 1.0 7.0 0.00 0.00 0.00 45 1011.9
20260831133603 94 160 2.0 7.0 0.00 0.00 0.00 47 1011.8
20260831133203 93 145 1.0 4.0 0.00 0.00 0.00 44 1011.6
20260831132803 93 170 1.0 6.0 0.00 0.00 0.00 49 1011.9
20260831132617 93 174 2.0 6.0 0.00 0.00 0.00 49 1011.9
20260831132003 93 152 2.0 6.0 0.00 0.00 0.00 48 1011.8
20260831131603 92 170 2.0 6.0 0.00 0.00 0.00 47 1012.0
20260831131203 93 186 3.0 6.0 0.00 0.00 0.00 49 1012.1
20260831130803 93 198 1.0 6.0 0.00 0.00 0.00 47 1012.0
20260831130613 92 192 2.0 6.0 0.00 0.00 0.00 46 1012.1
20260831130004 92 203 2.0 6.0 0.00 0.00 0.00 49 1012.1
20260831125817 92 196 2.0 4.0 0.00 0.00 0.00 47 1012.1
20260831125203 91 197 3.0 8.0 0.00 0.00 0.00 48 1012.0
20260831125016 91 195 2.0 8.0 0.00 0.00 0.00 50 1012.3
20260831124403 92 198 4.0 8.0 0.00 0.00 0.00 49 1012.4
20260831124003 92 160 2.0 8.0 0.00 0.00 0.00 49 1012.2
20260831123603 92 179 2.0 8.0 0.00 0.00 0.00 52 1012.2
20260831123413 92 190 2.0 8.0 0.00 0.00 0.00 49 1012.4
20260831122803 92 169 3.0 7.0 0.00 0.00 0.00 47 1012.0
20260831122403 91 139 2.0 6.0 0.00 0.00 0.00 46 1012.4
20260831122003 91 158 2.0 6.0 0.00 0.00 0.00 49 1012.5
20260831121816 91 169 2.0 6.0 0.00 0.00 0.00 49 1012.3
20260831121203 92 176 3.0 6.0 0.00 0.00 0.00 49 1012.3
20260831120803 93 179 3.0 4.0 0.00 0.00 0.00 46 1012.5
20260831120614 93 168 1.0 4.0 0.00 0.00 0.00 46 1012.5
20260831120213 91 160 2.0 4.0 0.00 0.00 0.00 46 1012.5
20260831115603 91 175 2.0 4.0 0.00 0.00 0.00 48 1012.4
20260831115203 90 193 2.0 4.0 0.00 0.00 0.00 49 1012.5
20260831114803 91 133 2.0 4.0 0.00 0.00 0.00 48 1012.6
20260831114403 92 175 2.0 4.0 0.00 0.00 0.00 48 1012.7
20260831114003 93 208 0.0 8.0 0.00 0.00 0.00 49 1012.6
20260831113603 91 199 1.0 8.0 0.00 0.00 0.00 50 1012.7
20260831113203 91 180 2.0 8.0 0.00 0.00 0.00 49 1012.7
20260831112803 91 133 0.0 4.0 0.00 0.00 0.00 50 1012.8
20260831112403 93 161 2.0 4.0 0.00 0.00 0.00 48 1012.8
20260831112003 93 159 0.0 2.0 0.00 0.00 0.00 47 1012.7
20260831111603 92 199 1.0 6.0 0.00 0.00 0.00 47 1012.9
20260831111203 90 207 1.0 6.0 0.00 0.00 0.00 49 1013.0
20260831111015 90 214 2.0 6.0 0.00 0.00 0.00 53 1012.8
20260831110403 91 179 2.0 4.0 0.00 0.00 0.00 51 1012.8
20260831110004 90 153 2.0 4.0 0.00 0.00 0.00 50 1012.7
20260831105603 91 135 2.0 4.0 0.00 0.00 0.00 54 1012.8
20260831105203 91 109 2.0 4.0 0.00 0.00 0.00 51 1012.8
20260831104803 90 91 2.0 4.0 0.00 0.00 0.00 51 1012.8
20260831104403 89 78 0.0 4.0 0.00 0.00 0.00 51 1012.9
20260831104003 91 105 2.0 4.0 0.00 0.00 0.00 50 1012.8
20260831103603 92 140 3.0 4.0 0.00 0.00 0.00 51 1013.0
20260831103203 92 173 2.0 4.0 0.00 0.00 0.00 52 1013.0
20260831102803 90 194 1.0 4.0 0.00 0.00 0.00 53 1012.9
20260831102613 90 192 0.0 4.0 0.00 0.00 0.00 51 1012.9
20260831102213 91 209 1.0 4.0 0.00 0.00 0.00 51 1013.0
20260831101603 90 199 2.0 4.0 0.00 0.00 0.00 51 1013.1
20260831101204 90 219 2.0 4.0 0.00 0.00 0.00 52 1013.0
20260831100803 90 207 2.0 4.0 0.00 0.00 0.00 52 1013.0
20260831100403 89 207 2.0 4.0 0.00 0.00 0.00 53 1013.0
20260831095603 88 245 2.0 4.0 0.00 0.00 0.00 55 1012.5
20260831095203 89 211 2.0 4.0 0.00 0.00 0.00 54 1012.3
20260831094803 89 179 2.0 4.0 0.00 0.00 0.00 53 1012.7
20260831094403 90 153 2.0 4.0 0.00 0.00 0.00 54 1012.7
20260831094217 90 137 1.0 4.0 0.00 0.00 0.00 52 1012.5
20260831093603 90 101 1.0 4.0 0.00 0.00 0.00 56 1012.4
20260831093203 90 118 2.0 4.0 0.00 0.00 0.00 56 1012.6
20260831092803 89 104 1.0 4.0 0.00 0.00 0.00 53 1012.7
20260831092403 89 102 1.0 4.0 0.00 0.00 0.00 55 1012.5
20260831092214 89 98 1.0 4.0 0.00 0.00 0.00 59 1012.6
20260831091813 90 118 2.0 2.0 0.00 0.00 0.00 58 1012.5
20260831091203 89 151 1.0 4.0 0.00 0.00 0.00 55 1012.8
20260831090803 87 163 2.0 4.0 0.00 0.00 0.00 58 1012.7
20260831090403 89 235 1.0 2.0 0.00 0.00 0.00 54 1012.9
20260831090003 88 259 1.0 4.0 0.00 0.00 0.00 56 1012.7
20260831085603 87 271 0.0 4.0 0.00 0.00 0.00 56 1012.5
20260831085203 86 270 2.0 4.0 0.00 0.00 0.00 60 1012.5
20260831084803 86 275 1.0 4.0 0.00 0.00 0.00 58 1012.8
20260831084403 89 272 2.0 4.0 0.00 0.00 0.00 57 1012.9
20260831084003 88 261 0.0 4.0 0.00 0.00 0.00 55 1012.7
20260831083604 87 274 1.0 4.0 0.00 0.00 0.00 58 1012.7
20260831083203 86 336 0.0 4.0 0.00 0.00 0.00 57 1012.6
20260831082803 88 352 1.0 2.0 0.00 0.00 0.00 55 1012.7
20260831082403 86 254 0.0 2.0 0.00 0.00 0.00 56 1012.7
20260831082214 85 256 0.0 2.0 0.00 0.00 0.00 56 1012.4
20260831081603 86 308 2.0 2.0 0.00 0.00 0.00 57 1012.4
20260831081203 85 287 0.0 2.0 0.00 0.00 0.00 57 1012.6
20260831080803 84 275 2.0 2.0 0.00 0.00 0.00 57 1012.5
20260831080403 84 288 1.0 2.0 0.00 0.00 0.00 58 1012.4
20260831080216 84 285 1.0 2.0 0.00 0.00 0.00 56 1012.4
20260831075603 84 275 0.0 2.0 0.00 0.00 0.00 58 1012.2
20260831075203 83 292 0.0 2.0 0.00 0.00 0.00 58 1012.3
20260831074803 83 291 2.0 4.0 0.00 0.00 0.00 60 1012.3
20260831074403 82 278 0.0 4.0 0.00 0.00 0.00 61 1012.2
20260831074003 82 255 2.0 4.0 0.00 0.00 0.00 63 1012.5
20260831073603 83 232 1.0 2.0 0.00 0.00 0.00 63 1012.3
20260831073417 83 231 1.0 2.0 0.00 0.00 0.00 63 1012.3
20260831073016 83 249 1.0 2.0 0.00 0.00 0.00 61 1012.2
20260831072403 82 270 1.0 2.0 0.00 0.00 0.00 64 1012.1
20260831072004 82 1 1.0 2.0 0.00 0.00 0.00 64 1012.2
20260831071603 82 31 0.0 2.0 0.00 0.00 0.00 63 1012.1
20260831071203 82 21 0.0 2.0 0.00 0.00 0.00 63 1012.3
20260831070803 82 16 0.0 2.0 0.00 0.00 0.00 63 1012.3
20260831070612 81 10 0.0 2.0 0.00 0.00 0.00 64 1012.5
20260831070003 81 339 0.0 2.0 0.00 0.00 0.00 63 1012.2
20260831065816 81 334 0.0 2.0 0.00 0.00 0.00 63 1012.3
20260831065203 79 314 0.0 2.0 0.00 0.00 0.00 68 1012.1
20260831064803 79 294 0.0 2.0 0.00 0.00 0.00 68 1012.2
20260831064403 78 267 1.0 2.0 0.00 0.00 0.00 69 1012.2
20260831064003 77 248 1.0 2.0 0.00 0.00 0.00 71 1012.0
20260831063603 77 259 0.0 2.0 0.00 0.00 0.00 71 1012.2
20260831063412 77 262 1.0 2.0 0.00 0.00 0.00 71 1012.0
20260831063017 76 270 2.0 2.0 0.00 0.00 0.00 72 1012.1
20260831062404 77 270 2.0 2.0 0.00 0.00 0.00 71 1012.2
20260831062216 76 270 0.0 2.0 0.00 0.00 0.00 73 1012.1
20260831061603 75 270 0.0 2.0 0.00 0.00 0.00 74 1012.0
20260831061203 74 0 0.0 0.0 0.00 0.00 0.00 83 1012.0
20260831060803 74 0 0.0 0.0 0.00 0.00 0.00 83 1012.1
20260831060403 73 0 0.0 0.0 0.00 0.00 0.00 84 1012.0
20260831060004 72 0 0.0 0.0 0.00 0.00 0.00 86 1012.1
20260831055603 72 0 0.0 0.0 0.00 0.00 0.00 86 1012.0
20260831055203 71 0 0.0 0.0 0.00 0.00 0.00 83 1012.0
20260831054803 71 0 0.0 0.0 0.00 0.00 0.00 83 1012.0
20260831054615 71 0 0.0 0.0 0.00 0.00 0.00 84 1012.2
20260831054003 70 0 0.0 0.0 0.00 0.00 0.00 84 1011.9
20260831053603 70 0 0.0 0.0 0.00 0.00 0.00 85 1011.9
20260831053413 70 0 0.0 0.0 0.00 0.00 0.00 85 1012.1
20260831052803 69 0 0.0 0.0 0.00 0.00 0.00 85 1011.9
20260831052403 69 0 0.0 0.0 0.00 0.00 0.00 86 1011.9
20260831052216 69 0 0.0 0.0 0.00 0.00 0.00 86 1011.8
20260831051603 68 0 0.0 0.0 0.00 0.00 0.00 87 1011.7
20260831051203 68 0 0.0 0.0 0.00 0.00 0.00 87 1011.7
20260831050803 68 0 0.0 0.0 0.00 0.00 0.00 88 1011.7
20260831050403 68 0 0.0 0.0 0.00 0.00 0.00 88 1011.6
20260831050004 68 0 0.0 0.0 0.00 0.00 0.00 87 1011.9